sat.trackr.live / text

‹ back to catalog

STARLINK-33725

NORAD 63717 · 2025-087W

PAYLOAD ACTIVE UNKNOWN

§ Identity

Operator
Country
US
Launch date
2025-04-28
Launch site
AFWTR
Launch vehicle
Mass (kg)
RCS (m²)

Purposes: comms

External: N2YO · Heavens-Above · Gunter

§ Orbital elements

Epoch: 2026-05-25T04:34:25.807008Z

Period
94.11 min
Inclination
53.1580°
Eccentricity
0.0001144
Mean motion
15.30201421 rev/d
Perigee alt
474.4 km
Apogee alt
476.0 km
Semi-major
6,853.3 km
B*
3.6227e-4
RAAN
224.1143°
Arg perigee
81.4928°
Mean anomaly
278.6202°
Rev number
6,091

§ Raw data

STARLINK-337251 63717U 25087W   26145.19057647  .00010386  00000+0  36227-3 0  99932 63717  53.1580 224.1143 0001144  81.4928 278.6202 15.30201421 60919

JSON: /api/v1/satellites/63717 · /tle

For live sub-satellite position, see the globe view (requires WebGL).

§ Visibility from observer

Set your observer location to see the next 7 days of passes ≥ 10°. The values pass through the URL so the page stays shareable.

No JS? Fill the form by hand. The geolocation button needs JavaScript.